Year,Month,Day,Hour,Minute,Value (Times are PST for windgust in km/hr)
2011,02,05,00,00,3.20
2011,02,05,00,01,1.60
2011,02,05,00,02,3.20
2011,02,05,00,04,3.20
2011,02,05,00,05,1.60
2011,02,05,00,06,3.20
2011,02,05,00,07,3.20
2011,02,05,00,08,4.80
2011,02,05,00,09,3.20
2011,02,05,00,11,3.20
2011,02,05,00,12,1.60
2011,02,05,00,13,1.60
2011,02,05,00,14,3.20
2011,02,05,00,15,6.40
2011,02,05,00,16,3.20
2011,02,05,00,21,1.60
2011,02,05,00,24,1.60
2011,02,05,00,25,4.80
2011,02,05,00,26,3.20
2011,02,05,00,27,3.20
2011,02,05,00,28,1.60
2011,02,05,00,29,3.20
2011,02,05,00,30,3.20
2011,02,05,00,31,1.60
2011,02,05,00,32,1.60
2011,02,05,00,33,3.20
2011,02,05,00,34,3.20
2011,02,05,00,35,1.60
2011,02,05,00,36,1.60
2011,02,05,00,37,1.60
2011,02,05,00,38,1.60
2011,02,05,00,39,1.60
2011,02,05,00,40,1.60
2011,02,05,00,41,1.60
2011,02,05,00,42,4.80
2011,02,05,00,43,4.80
2011,02,05,00,44,1.60
2011,02,05,00,45,1.60
2011,02,05,00,46,1.60
2011,02,05,00,47,1.60
2011,02,05,00,48,1.60
2011,02,05,00,49,1.60
2011,02,05,00,50,4.80
2011,02,05,00,51,6.40
2011,02,05,00,52,3.20
2011,02,05,00,53,3.20
2011,02,05,00,55,1.60
2011,02,05,00,56,1.60
2011,02,05,00,57,1.60
2011,02,05,00,58,1.60
2011,02,05,01,00,1.60
2011,02,05,01,02,3.20
2011,02,05,01,03,3.20
2011,02,05,01,04,1.60
2011,02,05,01,05,3.20
2011,02,05,01,06,1.60
2011,02,05,01,12,1.60
2011,02,05,01,19,1.60
2011,02,05,01,20,1.60
2011,02,05,01,21,3.20
2011,02,05,01,22,3.20
2011,02,05,01,23,3.20
2011,02,05,01,24,1.60
2011,02,05,01,25,1.60
2011,02,05,01,26,1.60
2011,02,05,01,29,1.60
2011,02,05,01,31,1.60
2011,02,05,01,32,1.60
2011,02,05,01,35,1.60
2011,02,05,01,37,1.60
2011,02,05,01,38,1.60
2011,02,05,01,40,1.60
2011,02,05,02,03,1.60
2011,02,05,02,04,1.60
2011,02,05,02,05,1.60
2011,02,05,02,06,1.60
2011,02,05,02,07,1.60
2011,02,05,02,08,1.60
2011,02,05,02,09,1.60
2011,02,05,02,10,1.60
2011,02,05,02,11,1.60
2011,02,05,02,39,3.20
2011,02,05,02,40,1.60
2011,02,05,02,48,1.60
2011,02,05,02,49,1.60
2011,02,05,03,54,1.60
2011,02,05,03,55,3.20
2011,02,05,04,01,1.60
2011,02,05,04,05,1.60
2011,02,05,04,07,3.20
2011,02,05,04,08,1.60
2011,02,05,04,12,3.20
2011,02,05,04,13,1.60
2011,02,05,04,14,6.40
2011,02,05,04,15,6.40
2011,02,05,04,16,1.60
2011,02,05,04,30,1.60
2011,02,05,04,31,1.60
2011,02,05,05,45,1.60
2011,02,05,09,51,1.60
2011,02,05,09,52,1.60
2011,02,05,09,59,1.60
2011,02,05,10,03,1.60
2011,02,05,11,06,3.20
2011,02,05,11,07,1.60
2011,02,05,11,08,3.20
2011,02,05,11,09,3.20
2011,02,05,11,10,6.40
2011,02,05,11,11,6.40
2011,02,05,11,12,3.20
2011,02,05,11,13,4.80
2011,02,05,11,14,4.80
2011,02,05,11,15,3.20
2011,02,05,11,16,4.80
2011,02,05,11,17,3.20
2011,02,05,11,18,3.20
2011,02,05,11,20,1.60
2011,02,05,11,21,3.20
2011,02,05,11,22,1.60
2011,02,05,11,23,3.20
2011,02,05,11,24,4.80
2011,02,05,11,25,4.80
2011,02,05,11,26,4.80
2011,02,05,11,27,4.80
2011,02,05,11,28,3.20
2011,02,05,11,29,4.80
2011,02,05,11,30,1.60
2011,02,05,11,31,1.60
2011,02,05,11,35,1.60
2011,02,05,11,37,1.60
2011,02,05,11,38,1.60
2011,02,05,11,39,3.20
2011,02,05,11,44,1.60
2011,02,05,11,45,1.60
2011,02,05,11,47,1.60
2011,02,05,11,57,1.60
2011,02,05,11,58,4.80
2011,02,05,11,59,3.20
2011,02,05,12,03,3.20
2011,02,05,12,04,1.60
2011,02,05,12,05,3.20
2011,02,05,12,06,1.60
2011,02,05,12,07,1.60
2011,02,05,12,15,1.60
2011,02,05,12,17,1.60
2011,02,05,12,18,1.60
2011,02,05,12,19,1.60
2011,02,05,12,20,3.20
2011,02,05,12,21,4.80
2011,02,05,12,22,6.40
2011,02,05,12,23,6.40
2011,02,05,12,24,1.60
2011,02,05,12,25,6.40
2011,02,05,12,26,3.20
2011,02,05,12,27,6.40
2011,02,05,12,28,4.80
2011,02,05,12,29,8.10
2011,02,05,12,30,6.40
2011,02,05,12,31,6.40
2011,02,05,12,32,3.20
2011,02,05,12,33,1.60
2011,02,05,12,34,6.40
2011,02,05,12,35,6.40
2011,02,05,12,36,6.40
2011,02,05,12,37,6.40
2011,02,05,12,38,4.80
2011,02,05,12,39,8.10
2011,02,05,12,40,11.30
2011,02,05,12,41,11.30
2011,02,05,12,42,11.30
2011,02,05,12,43,11.30
2011,02,05,12,44,6.40
2011,02,05,12,45,4.80
2011,02,05,12,46,6.40
2011,02,05,12,47,8.10
2011,02,05,12,48,3.20
2011,02,05,12,49,11.30
2011,02,05,12,50,6.40
2011,02,05,12,51,6.40
2011,02,05,12,52,8.10
2011,02,05,12,53,9.60
2011,02,05,12,54,9.60
2011,02,05,12,55,4.80
2011,02,05,12,56,3.20
2011,02,05,12,57,8.10
2011,02,05,12,58,6.40
2011,02,05,12,59,4.80
2011,02,05,13,00,1.60
2011,02,05,13,01,8.10
2011,02,05,13,02,4.80
2011,02,05,13,03,6.40
2011,02,05,13,04,6.40
2011,02,05,13,05,4.80
2011,02,05,13,06,3.20
2011,02,05,13,07,4.80
2011,02,05,13,08,4.80
2011,02,05,13,09,4.80
2011,02,05,13,10,4.80
2011,02,05,13,11,1.60
2011,02,05,13,12,4.80
2011,02,05,13,13,6.40
2011,02,05,13,14,4.80
2011,02,05,13,15,8.10
2011,02,05,13,16,6.40
2011,02,05,13,17,8.10
2011,02,05,13,18,8.10
2011,02,05,13,20,1.60
2011,02,05,13,21,3.20
2011,02,05,13,22,8.10
2011,02,05,13,23,6.40
2011,02,05,13,24,3.20
2011,02,05,13,25,1.60
2011,02,05,13,26,1.60
2011,02,05,13,27,1.60
2011,02,05,13,29,3.20
2011,02,05,13,30,3.20
2011,02,05,13,33,3.20
2011,02,05,13,34,9.60
2011,02,05,13,35,9.60
2011,02,05,13,36,6.40
2011,02,05,13,37,6.40
2011,02,05,13,38,4.80
2011,02,05,13,39,8.10
2011,02,05,13,40,8.10
2011,02,05,13,41,8.10
2011,02,05,13,42,1.60
2011,02,05,13,43,8.10
2011,02,05,13,44,6.40
2011,02,05,13,45,8.10
2011,02,05,13,46,1.60
2011,02,05,13,47,3.20
2011,02,05,13,48,4.80
2011,02,05,13,49,6.40
2011,02,05,13,50,6.40
2011,02,05,13,51,9.60
2011,02,05,13,52,9.60
2011,02,05,13,53,8.10
2011,02,05,13,54,4.80
2011,02,05,13,55,3.20
2011,02,05,13,56,4.80
2011,02,05,13,57,8.10
2011,02,05,13,58,9.60
2011,02,05,13,59,4.80
2011,02,05,14,01,4.80
2011,02,05,14,02,8.10
2011,02,05,14,03,11.30
2011,02,05,14,04,11.30
2011,02,05,14,05,4.80
2011,02,05,14,06,4.80
2011,02,05,14,07,3.20
2011,02,05,14,08,1.60
2011,02,05,14,09,1.60
2011,02,05,14,10,3.20
2011,02,05,14,11,4.80
2011,02,05,14,12,3.20
2011,02,05,14,13,1.60
2011,02,05,14,14,1.60
2011,02,05,14,16,3.20
2011,02,05,14,17,3.20
2011,02,05,14,18,1.60
2011,02,05,14,19,1.60
2011,02,05,14,20,3.20
2011,02,05,14,21,3.20
2011,02,05,14,22,1.60
2011,02,05,14,23,3.20
2011,02,05,14,24,3.20
2011,02,05,14,25,1.60
2011,02,05,14,26,6.40
2011,02,05,14,27,6.40
2011,02,05,14,28,4.80
2011,02,05,14,29,6.40
2011,02,05,14,30,6.40
2011,02,05,14,31,6.40
2011,02,05,14,32,4.80
2011,02,05,14,33,3.20
2011,02,05,14,34,6.40
2011,02,05,14,35,6.40
2011,02,05,14,36,8.10
2011,02,05,14,37,6.40
2011,02,05,14,38,4.80
2011,02,05,14,39,8.10
2011,02,05,14,40,6.40
2011,02,05,14,41,3.20
2011,02,05,14,43,1.60
2011,02,05,14,44,3.20
2011,02,05,14,46,3.20
2011,02,05,14,47,6.40
2011,02,05,14,48,3.20
2011,02,05,14,50,3.20
2011,02,05,14,51,3.20
2011,02,05,14,52,3.20
2011,02,05,14,53,1.60
2011,02,05,14,57,3.20
2011,02,05,14,58,4.80
2011,02,05,14,59,6.40
2011,02,05,15,00,4.80
2011,02,05,15,01,8.10
2011,02,05,15,02,9.60
2011,02,05,15,03,4.80
2011,02,05,15,04,6.40
2011,02,05,15,05,6.40
2011,02,05,15,06,9.60
2011,02,05,15,07,11.30
2011,02,05,15,08,11.30
2011,02,05,15,09,9.60
2011,02,05,15,10,6.40
2011,02,05,15,11,6.40
2011,02,05,15,12,6.40
2011,02,05,15,13,6.40
2011,02,05,15,14,9.60
2011,02,05,15,15,12.90
2011,02,05,15,16,9.60
2011,02,05,15,17,9.60
2011,02,05,15,18,9.60
2011,02,05,15,19,3.20
2011,02,05,15,20,4.80
2011,02,05,15,21,3.20
2011,02,05,15,22,8.10
2011,02,05,15,23,8.10
2011,02,05,15,24,8.10
2011,02,05,15,25,6.40
2011,02,05,15,26,6.40
2011,02,05,15,27,1.60
2011,02,05,15,28,3.20
2011,02,05,15,29,1.60
2011,02,05,15,30,1.60
2011,02,05,15,32,1.60
2011,02,05,15,33,1.60
2011,02,05,15,34,1.60
2011,02,05,15,35,1.60
2011,02,05,15,37,3.20
2011,02,05,15,38,1.60
2011,02,05,15,43,1.60
2011,02,05,15,51,1.60
2011,02,05,15,57,1.60
2011,02,05,15,58,1.60
2011,02,05,15,59,1.60
2011,02,05,16,00,1.60
2011,02,05,16,01,1.60
2011,02,05,16,30,1.60
2011,02,05,16,39,1.60
2011,02,05,16,42,1.60
2011,02,05,16,43,1.60
2011,02,05,16,45,4.80
2011,02,05,16,46,4.80
2011,02,05,21,08,1.60
2011,02,05,21,09,1.60
2011,02,05,23,37,1.60
